Weather History for KOVS - October, 2012

Change the Weather History Date:

Tuesday, October 16, 2012

  Actual Average (KPDC) Record (KPDC)
Temperature  
Mean Temperature 56 °F -  
Max Temperature 72 °F 63 °F 87 °F (1953)
Min Temperature 39 °F 40 °F 25 °F (1970)
Degree Days  
Heating Degree Days 10    
Growing Degree Days 6 (Base 50)    
Moisture  
Dew Point 46 °F    
Average Humidity 78    
Maximum Humidity 100    
Minimum Humidity 45    
Precipitation  
Precipitation 0.00 in - - ()
Sea Level Pressure  
Sea Level Pressure 29.59 in    
Wind  
Wind Speed 2 mph (South)    
Max Wind Speed 13 mph    
Max Gust Speed 20 mph    
Visibility 8 miles    
Events      
Averages and records for this station are not official NWS values.
T = Trace of Precipitation, MM = Missing Value Source: NWS Daily Summary

Daily Weather History Graph

Daily Weather History Graph

Search for Another Location

Airport or City:

Trip Planner

Search our weather history database for the weather conditions in past years. The results will help you decide how hot, cold, wet, or windy it might be!

Date:

Astronomy

Oct. 16, 2012 Rise Set
Actual Time 7:18 AM CDT 6:17 PM CDT
Civil Twilight 6:49 AM CDT 6:46 PM CDT
Nautical Twilight 6:16 AM CDT 7:19 PM CDT
Astronomical Twilight 5:43 AM CDT 7:51 PM CDT
Moon 8:44 AM CDT (10/16) 6:58 PM CDT (10/16)
Length of Visible Light 11h 56m
Length of Day
10h 59m
New Moon, 2% of the Moon is Illuminated
Oct 16
New Moon
Oct 21
First Quarter
Oct 29
Full
Nov 6
Last Quarter
Nov 13
New

Hourly Weather History & Observations

Time (CDT) Temp. Dew Point Humidity Pressure Visibility Wind Dir Wind Speed Gust Speed Precip Events Conditions
12:53 AM 41.0 °F 39.9 °F 96% 29.91 in 9.0 mi Calm Calm - N/A   Clear
1:53 AM 41.0 °F 41.0 °F 100% 29.88 in 10.0 mi Calm Calm - N/A   Clear
2:53 AM 42.1 °F 41.0 °F 96% 29.85 in 10.0 mi Calm Calm - N/A   Overcast
3:53 AM 42.1 °F 39.9 °F 92% 29.83 in 10.0 mi Calm Calm - N/A   Clear
4:53 AM 41.0 °F 39.9 °F 96% 29.82 in 10.0 mi Calm Calm - N/A   Clear
5:53 AM 39.9 °F 39.9 °F 100% 29.80 in 8.0 mi Calm Calm - N/A   Clear
7:53 AM 45.0 °F 42.1 °F 90% 29.76 in 10.0 mi Calm Calm - N/A   Clear
8:53 AM 51.1 °F 45.0 °F 80% 29.74 in 10.0 mi Calm Calm - N/A   Clear
9:53 AM 57.9 °F 44.1 °F 60% 29.71 in 10.0 mi Calm Calm - N/A   Clear
10:53 AM 63.0 °F 45.0 °F 52% 29.67 in 10.0 mi South 10.4 mph 18.4 mph N/A   Clear
11:53 AM 66.0 °F 46.0 °F 48% 29.63 in 10.0 mi Variable 5.8 mph 16.1 mph N/A   Clear
12:53 PM 68.0 °F 46.9 °F 47% 29.57 in 10.0 mi South 8.1 mph - N/A   Clear
1:53 PM 71.1 °F 48.9 °F 45% 29.55 in 10.0 mi SSW 11.5 mph 18.4 mph N/A   Clear
2:53 PM 70.0 °F 50.0 °F 49% 29.51 in 10.0 mi Variable 5.8 mph - N/A   Partly Cloudy
3:53 PM 72.0 °F 51.1 °F 48% 29.49 in 10.0 mi South 12.7 mph 19.6 mph N/A   Clear
4:53 PM 71.1 °F 51.1 °F 49% 29.47 in 10.0 mi SSE 8.1 mph - N/A   Clear
5:53 PM 68.0 °F 52.0 °F 56% 29.47 in 10.0 mi Calm Calm - N/A   Clear
6:53 PM 62.1 °F 52.0 °F 70% 29.46 in 10.0 mi Calm Calm - N/A   Clear
7:53 PM 60.1 °F 51.1 °F 72% 29.45 in 10.0 mi NNE 3.5 mph - N/A   Clear
8:53 PM 54.0 °F 50.0 °F 86% 29.43 in 10.0 mi Calm Calm - N/A   Clear
9:53 PM 51.1 °F 48.9 °F 92% 29.44 in 10.0 mi Calm Calm - N/A   Clear
10:53 PM 48.9 °F 48.0 °F 97% 29.44 in 8.0 mi Calm Calm - N/A   Clear
11:38 PM 46.4 °F 46.4 °F 100% 29.43 in 1.2 mi Calm Calm - N/A   Clear
11:44 PM 46.4 °F 46.4 °F 100% 29.43 in 0.8 mi Calm Calm - N/A   Clear
11:48 PM 46.4 °F 46.4 °F 100% 29.43 in 1.2 mi Calm Calm - N/A   Clear
11:53 PM 48.0 °F 46.9 °F 96% 29.44 in 2.0 mi Calm Calm - N/A   Clear
11:58 PM 46.4 °F 46.4 °F 100% 29.43 in 1.0 mi Calm Calm - N/A   Clear